Overview Statistics Trail Chart Weather Telemetry Raw packets
 

This is the latest recevied weather packets stored in our database for station/object KB9HUO. If no packets are shown the sender has not sent any weather packets the latest 10 day(s).

<< 32 33 34 35 36 37 38 >>
Time Temp. Humidity Pressure Rain* Wind** Luminosity Snow
1788450008 33.33° C 59% 1018.4 hPa 0 mm - 561 W/m² -
1788449703 33.33° C 60% 1018.3 hPa 0 mm - 552 W/m² -
1788449399 32.78° C 61% 1018.5 hPa 0 mm - 538 W/m² -
1788449094 32.78° C 63% 1018.3 hPa 0 mm - 530 W/m² -
1788448790 32.22° C 64% 1018.3 hPa 0 mm - 123 W/m² -
1788448484 32.22° C 64% 1018.4 hPa 0 mm - 99 W/m² -
1788448180 32.22° C 65% 1018.4 hPa 0 mm - 113 W/m² -
1788447880 31.67° C 66% 1018.3 hPa 0 mm - 115 W/m² -
1788447580 31.67° C 67% 1018.3 hPa 0 mm - 313 W/m² -
1788447275 31.11° C 69% 1018.4 hPa 0 mm - 158 W/m² -
1788446970 31.11° C 68% 1018.2 hPa 0 mm - 173 W/m² -
1788446669 30.56° C 69% 1018.3 hPa 0 mm - 68 W/m² -
1788446365 30.56° C 68% 1018.4 hPa 0 mm - 67 W/m² -
1788446062 30.56° C 70% 1018.3 hPa 0 mm - 65 W/m² -
1788445757 30.56° C 70% 1018.4 hPa 0 mm - 69 W/m² -
1788445453 30° C 72% 1018.3 hPa 0 mm - 61 W/m² -
1788445148 30° C 75% 1018.2 hPa 0 mm - 60 W/m² -
1788444838 29.44° C 75% 1018.3 hPa 0 mm - 59 W/m² -
1788444534 29.44° C 76% 1018.5 hPa 0 mm - 59 W/m² -
1788444228 28.89° C 75% 1018.5 hPa 0 mm - 59 W/m² -
1788443924 28.33° C 77% 1018.4 hPa 0 mm - 58 W/m² -
1788443619 28.33° C 79% 1018.5 hPa 0 mm - 62 W/m² -
1788443318 27.78° C 81% 1018.4 hPa 0 mm - 54 W/m² -
1788443013 27.22° C 84% 1018.5 hPa 0 mm - 53 W/m² -
1788442711 27.22° C 85% 1018.5 hPa 0 mm - 51 W/m² -

* Rain latest hour (hover to see other rain measurements)
** Current wind speed in m/s (hover to see current wind gust speed)